HB9BFD-10 Weather Reports


Display with metric or nautical units.
time (UTC)temp
F
wind
direction
speed
MPH
gust
MPH
rain 1hr
in
rain 24hr
in
rain mn
in
humidity
%
barometer
mb
20260507192942 0 0.0 0.0 0.00 0.00 0.00 62 1017.6
20260507192442 0 0.0 0.0 0.00 0.00 0.00 62 1017.5
20260507191942 0 0.0 0.0 0.00 0.00 0.00 61 1017.5
20260507191442 0 0.0 0.0 0.00 0.00 0.00 61 1017.5
20260507190942 0 0.0 0.0 0.00 0.00 0.00 60 1017.5
20260507190442 0 0.0 0.0 0.00 0.00 0.00 60 1017.4
20260507185942 0 0.0 0.0 0.00 0.00 0.00 59 1017.4
20260507185442 0 0.0 0.0 0.00 0.00 0.00 59 1017.5
20260507184942 0 0.0 0.0 0.00 0.00 0.00 59 1017.3
20260507184442 0 0.0 0.0 0.00 0.00 0.00 58 1017.4
20260507183942 0 0.0 0.0 0.00 0.00 0.00 58 1017.3
20260507183442 0 0.0 0.0 0.00 0.00 0.00 59 1017.3
20260507182942 0 0.0 0.0 0.00 0.00 0.00 59 1017.3
20260507182442 0 0.0 0.0 0.00 0.00 0.00 60 1017.3
20260507181942 0 0.0 0.0 0.00 0.00 0.00 60 1017.1
20260507181442 0 0.0 0.0 0.00 0.00 0.00 59 1017.2
20260507180942 0 0.0 0.0 0.00 0.00 0.00 58 1017.1
20260507180442 0 0.0 0.0 0.00 0.00 0.00 57 1017.1
20260507175942 0 0.0 0.0 0.00 0.00 0.00 57 1017.1
20260507175442 0 0.0 0.0 0.00 0.00 0.00 57 1017.1
20260507174942 0 0.0 0.0 0.00 0.00 0.00 55 1017.1
20260507174442 0 0.0 0.0 0.00 0.00 0.00 55 1017.0
20260507173942 0 0.0 0.0 0.00 0.00 0.00 55 1017.0
20260507173442 0 0.0 0.0 0.00 0.00 0.00 54 1017.0
20260507172942 0 0.0 0.0 0.00 0.00 0.00 55 1017.0
20260507172442 0 0.0 0.0 0.00 0.00 0.00 54 1016.9
20260507171942 0 0.0 0.0 0.00 0.00 0.00 53 1016.9
20260507171442 0 0.0 0.0 0.00 0.00 0.00 53 1016.8
20260507170942 0 0.0 0.0 0.00 0.00 0.00 52 1016.7
20260507170442 0 0.0 0.0 0.00 0.00 0.00 50 1016.9
20260507165942 0 0.0 0.0 0.00 0.00 0.00 49 1016.9
20260507165442 0 0.0 0.0 0.00 0.00 0.00 50 1016.8
20260507164942 0 0.0 0.0 0.00 0.00 0.00 50 1016.8
20260507164442 0 0.0 0.0 0.00 0.00 0.00 49 1016.8
20260507163942 0 0.0 0.0 0.00 0.00 0.00 49 1016.9
20260507163442 0 0.0 0.0 0.00 0.00 0.00 49 1016.8
20260507162942 0 0.0 0.0 0.00 0.00 0.00 48 1016.7
20260507162442 0 0.0 0.0 0.00 0.00 0.00 46 1016.8
20260507161942 0 0.0 0.0 0.00 0.00 0.00 47 1016.9
20260507161442 0 0.0 0.0 0.00 0.00 0.00 46 1016.8
20260507160942 0 0.0 0.0 0.00 0.00 0.00 47 1016.8
20260507160442 0 0.0 0.0 0.00 0.00 0.00 46 1016.8
20260507155942 0 0.0 0.0 0.00 0.00 0.00 48 1016.8
20260507155442 0 0.0 0.0 0.00 0.00 0.00 47 1016.9
20260507154942 0 0.0 0.0 0.00 0.00 0.00 45 1016.8
20260507154442 0 0.0 0.0 0.00 0.00 0.00 46 1016.8
20260507153942 0 0.0 0.0 0.00 0.00 0.00 46 1016.8
20260507153442 0 0.0 0.0 0.00 0.00 0.00 47 1016.7
20260507152942 0 0.0 0.0 0.00 0.00 0.00 46 1016.8
20260507152442 0 0.0 0.0 0.00 0.00 0.00 47 1016.7
20260507151942 0 0.0 0.0 0.00 0.00 0.00 47 1016.8
20260507151442 0 0.0 0.0 0.00 0.00 0.00 48 1016.8
20260507150942 0 0.0 0.0 0.00 0.00 0.00 48 1016.9
20260507150442 0 0.0 0.0 0.00 0.00 0.00 47 1016.8
20260507145942 0 0.0 0.0 0.00 0.00 0.00 47 1016.8
20260507145442 0 0.0 0.0 0.00 0.00 0.00 49 1016.8
20260507144942 0 0.0 0.0 0.00 0.00 0.00 48 1016.8
20260507144442 0 0.0 0.0 0.00 0.00 0.00 47 1016.9
20260507143942 0 0.0 0.0 0.00 0.00 0.00 48 1016.8
20260507143442 0 0.0 0.0 0.00 0.00 0.00 48 1016.9
20260507142942 0 0.0 0.0 0.00 0.00 0.00 49 1016.8
20260507142442 0 0.0 0.0 0.00 0.00 0.00 50 1016.9
20260507141942 0 0.0 0.0 0.00 0.00 0.00 49 1017.0
20260507141442 0 0.0 0.0 0.00 0.00 0.00 50 1017.0
20260507140942 0 0.0 0.0 0.00 0.00 0.00 51 1017.0
20260507140442 0 0.0 0.0 0.00 0.00 0.00 49 1017.0
20260507135942 0 0.0 0.0 0.00 0.00 0.00 49 1017.0
20260507135442 0 0.0 0.0 0.00 0.00 0.00 50 1017.1
20260507134942 0 0.0 0.0 0.00 0.00 0.00 50 1017.1
20260507134442 0 0.0 0.0 0.00 0.00 0.00 50 1017.1
20260507133942 0 0.0 0.0 0.00 0.00 0.00 53 1017.1
20260507133442 0 0.0 0.0 0.00 0.00 0.00 51 1017.2
20260507132942 0 0.0 0.0 0.00 0.00 0.00 53 1017.4
20260507132442 0 0.0 0.0 0.00 0.00 0.00 54 1017.3
20260507131942 0 0.0 0.0 0.00 0.00 0.00 54 1017.4
20260507131442 0 0.0 0.0 0.00 0.00 0.00 52 1017.3
20260507130942 0 0.0 0.0 0.00 0.00 0.00 56 1017.4
20260507130442 0 0.0 0.0 0.00 0.00 0.00 58 1017.4
20260507125942 0 0.0 0.0 0.00 0.00 0.00 60 1017.4
20260507125442 0 0.0 0.0 0.00 0.00 0.00 61 1017.4
20260507124942 0 0.0 0.0 0.00 0.00 0.00 58 1017.6
20260507124442 0 0.0 0.0 0.00 0.00 0.00 56 1017.6
20260507123942 0 0.0 0.0 0.00 0.00 0.00 54 1017.6
20260507123442 0 0.0 0.0 0.00 0.00 0.00 52 1017.4
20260507122942 0 0.0 0.0 0.00 0.00 0.00 52 1017.4
20260507122442 0 0.0 0.0 0.00 0.00 0.00 50 1017.4
20260507121942 0 0.0 0.0 0.00 0.00 0.00 50 1017.4
20260507121442 0 0.0 0.0 0.00 0.00 0.00 49 1017.5
20260507120942 0 0.0 0.0 0.00 0.00 0.00 53 1017.5
20260507120442 0 0.0 0.0 0.00 0.00 0.00 54 1017.5
20260507115942 0 0.0 0.0 0.00 0.00 0.00 52 1017.5
20260507115442 0 0.0 0.0 0.00 0.00 0.00 53 1017.5
20260507114942 0 0.0 0.0 0.00 0.00 0.00 54 1017.4
20260507114442 0 0.0 0.0 0.00 0.00 0.00 56 1017.5
20260507113942 0 0.0 0.0 0.00 0.00 0.00 55 1017.6
20260507113442 0 0.0 0.0 0.00 0.00 0.00 56 1017.6
20260507112942 0 0.0 0.0 0.00 0.00 0.00 54 1017.7
20260507112442 0 0.0 0.0 0.00 0.00 0.00 56 1017.6
20260507111942 0 0.0 0.0 0.00 0.00 0.00 57 1017.6
20260507111442 0 0.0 0.0 0.00 0.00 0.00 61 1017.6
20260507110942 0 0.0 0.0 0.00 0.00 0.00 62 1017.6
20260507110442 0 0.0 0.0 0.00 0.00 0.00 67 1017.6
20260507105942 0 0.0 0.0 0.00 0.00 0.00 63 1017.7
20260507105442 0 0.0 0.0 0.00 0.00 0.00 63 1017.7
20260507104942 0 0.0 0.0 0.00 0.00 0.00 69 1017.7
20260507104442 0 0.0 0.0 0.00 0.00 0.00 68 1017.8
20260507103942 0 0.0 0.0 0.00 0.00 0.00 66 1017.7
20260507103442 0 0.0 0.0 0.00 0.00 0.00 64 1017.7
20260507102942 0 0.0 0.0 0.00 0.00 0.00 68 1017.7
20260507102442 0 0.0 0.0 0.00 0.00 0.00 64 1017.7
20260507101942 0 0.0 0.0 0.00 0.00 0.00 66 1017.8
20260507101442 0 0.0 0.0 0.00 0.00 0.00 70 1017.8
20260507100942 0 0.0 0.0 0.00 0.00 0.00 68 1017.8
20260507100442 0 0.0 0.0 0.00 0.00 0.00 65 1017.8
20260507095942 0 0.0 0.0 0.00 0.00 0.00 60 1017.7
20260507095442 0 0.0 0.0 0.00 0.00 0.00 61 1017.7
20260507094942 0 0.0 0.0 0.00 0.00 0.00 62 1017.8
20260507094442 0 0.0 0.0 0.00 0.00 0.00 62 1017.8
20260507093942 0 0.0 0.0 0.00 0.00 0.00 63 1017.8
20260507093442 0 0.0 0.0 0.00 0.00 0.00 66 1017.8
20260507092942 0 0.0 0.0 0.00 0.00 0.00 67 1017.9
20260507092442 0 0.0 0.0 0.00 0.00 0.00 68 1017.8
20260507091942 0 0.0 0.0 0.00 0.00 0.00 67 1017.8
20260507091442 0 0.0 0.0 0.00 0.00 0.00 70 1017.8
20260507090942 0 0.0 0.0 0.00 0.00 0.00 71 1017.8
20260507090442 0 0.0 0.0 0.00 0.00 0.00 71 1017.8
20260507085942 0 0.0 0.0 0.00 0.00 0.00 71 1017.9
20260507085442 0 0.0 0.0 0.00 0.00 0.00 73 1017.9
20260507084942 0 0.0 0.0 0.00 0.00 0.00 71 1017.8
20260507084442 0 0.0 0.0 0.00 0.00 0.00 71 1017.8
20260507083942 0 0.0 0.0 0.00 0.00 0.00 72 1017.7
20260507083442 0 0.0 0.0 0.00 0.00 0.00 74 1017.7
20260507082942 0 0.0 0.0 0.00 0.00 0.00 76 1017.8
20260507082442 0 0.0 0.0 0.00 0.00 0.00 73 1017.8
20260507081942 0 0.0 0.0 0.00 0.00 0.00 74 1017.8
20260507081442 0 0.0 0.0 0.00 0.00 0.00 76 1017.8
20260507080942 0 0.0 0.0 0.00 0.00 0.00 77 1017.7
20260507080442 0 0.0 0.0 0.00 0.00 0.00 78 1017.7
20260507075942 0 0.0 0.0 0.00 0.00 0.00 78 1017.7
20260507075442 0 0.0 0.0 0.00 0.00 0.00 78 1017.7
20260507074942 0 0.0 0.0 0.00 0.00 0.00 78 1017.7
20260507074442 0 0.0 0.0 0.00 0.00 0.00 79 1017.7
20260507073942 0 0.0 0.0 0.00 0.00 0.00 78 1017.6
20260507073442 0 0.0 0.0 0.00 0.00 0.00 79 1017.5
20260507072942 0 0.0 0.0 0.00 0.00 0.00 81 1017.5
20260507072442 0 0.0 0.0 0.00 0.00 0.00 82 1017.5
20260507071942 0 0.0 0.0 0.00 0.00 0.00 84 1017.5
20260507071442 0 0.0 0.0 0.00 0.00 0.00 85 1017.6
20260507070942 0 0.0 0.0 0.00 0.00 0.00 86 1017.5
20260507070442 0 0.0 0.0 0.00 0.00 0.00 86 1017.5
20260507065942 0 0.0 0.0 0.00 0.00 0.00 87 1017.4
20260507065442 0 0.0 0.0 0.00 0.00 0.00 86 1017.4
20260507064942 0 0.0 0.0 0.00 0.00 0.00 86 1017.3
20260507064442 0 0.0 0.0 0.00 0.00 0.00 87 1017.2
20260507063942 0 0.0 0.0 0.00 0.00 0.00 87 1017.2
20260507063442 0 0.0 0.0 0.00 0.00 0.00 87 1017.2
20260507062942 0 0.0 0.0 0.00 0.00 0.00 87 1017.3
20260507062442 0 0.0 0.0 0.00 0.00 0.00 87 1017.2
20260507061942 0 0.0 0.0 0.00 0.00 0.00 87 1017.1
20260507061442 0 0.0 0.0 0.00 0.00 0.00 87 1017.1
20260507060942 0 0.0 0.0 0.00 0.00 0.00 88 1017.0
20260507060442 0 0.0 0.0 0.00 0.00 0.00 88 1017.0
20260507055942 0 0.0 0.0 0.00 0.00 0.00 88 1016.9
20260507055442 0 0.0 0.0 0.00 0.00 0.00 88 1016.8
20260507054942 0 0.0 0.0 0.00 0.00 0.00 88 1016.8
20260507054442 0 0.0 0.0 0.00 0.00 0.00 88 1016.8
20260507053942 0 0.0 0.0 0.00 0.00 0.00 88 1016.7
20260507053442 0 0.0 0.0 0.00 0.00 0.00 88 1016.7
20260507052942 0 0.0 0.0 0.00 0.00 0.00 88 1016.7
20260507052442 0 0.0 0.0 0.00 0.00 0.00 88 1016.7
20260507051942 0 0.0 0.0 0.00 0.00 0.00 88 1016.5
20260507051442 0 0.0 0.0 0.00 0.00 0.00 88 1016.5
20260507050942 0 0.0 0.0 0.00 0.00 0.00 88 1016.4
20260507050442 0 0.0 0.0 0.00 0.00 0.00 90 1016.4
20260507045942 0 0.0 0.0 0.00 0.00 0.00 89 1016.3
20260507045443 0 0.0 0.0 0.00 0.00 0.00 89 1016.3
20260507044942 0 0.0 0.0 0.00 0.00 0.00 89 1016.2
20260507044442 0 0.0 0.0 0.00 0.00 0.00 89 1016.2
20260507043942 0 0.0 0.0 0.00 0.00 0.00 89 1016.1
20260507043442 0 0.0 0.0 0.00 0.00 0.00 89 1016.1
20260507042942 0 0.0 0.0 0.00 0.00 0.00 90 1016.1
20260507042442 0 0.0 0.0 0.00 0.00 0.00 89 1016.0
20260507041942 0 0.0 0.0 0.00 0.00 0.00 89 1015.9
20260507041442 0 0.0 0.0 0.00 0.00 0.00 89 1016.0
20260507040942 0 0.0 0.0 0.00 0.00 0.00 91 1016.0
20260507040442 0 0.0 0.0 0.00 0.00 0.00 90 1015.9
20260507035942 0 0.0 0.0 0.00 0.00 0.00 89 1015.9
20260507035442 0 0.0 0.0 0.00 0.00 0.00 89 1015.8
20260507034943 0 0.0 0.0 0.00 0.00 0.00 89 1015.8
20260507034442 0 0.0 0.0 0.00 0.00 0.00 89 1015.8
20260507033942 0 0.0 0.0 0.00 0.00 0.00 90 1015.8
20260507033442 0 0.0 0.0 0.00 0.00 0.00 90 1015.8
20260507032942 0 0.0 0.0 0.00 0.00 0.00 90 1015.8
20260507032442 0 0.0 0.0 0.00 0.00 0.00 90 1015.7
20260507031942 0 0.0 0.0 0.00 0.00 0.00 89 1015.6
20260507031442 0 0.0 0.0 0.00 0.00 0.00 89 1015.6
20260507030942 0 0.0 0.0 0.00 0.00 0.00 90 1015.7
20260507030442 0 0.0 0.0 0.00 0.00 0.00 89 1015.6
20260507025942 0 0.0 0.0 0.00 0.00 0.00 89 1015.7
20260507025442 0 0.0 0.0 0.00 0.00 0.00 89 1015.6
20260507024942 0 0.0 0.0 0.00 0.00 0.00 88 1015.6
20260507024442 0 0.0 0.0 0.00 0.00 0.00 89 1015.6
20260507023942 0 0.0 0.0 0.00 0.00 0.00 89 1015.6
20260507023442 0 0.0 0.0 0.00 0.00 0.00 88 1015.5
20260507022942 0 0.0 0.0 0.00 0.00 0.00 87 1015.4
20260507022442 0 0.0 0.0 0.00 0.00 0.00 86 1015.4
20260507021942 0 0.0 0.0 0.00 0.00 0.00 86 1015.4
20260507021442 0 0.0 0.0 0.00 0.00 0.00 85 1015.4
20260507020942 0 0.0 0.0 0.00 0.00 0.00 85 1015.3
20260507020442 0 0.0 0.0 0.00 0.00 0.00 85 1015.3
20260507015942 0 0.0 0.0 0.00 0.00 0.00 85 1015.4
20260507015442 0 0.0 0.0 0.00 0.00 0.00 85 1015.3
20260507014942 0 0.0 0.0 0.00 0.00 0.00 84 1015.3
20260507014442 0 0.0 0.0 0.00 0.00 0.00 84 1015.2
20260507013942 0 0.0 0.0 0.00 0.00 0.00 84 1015.2
20260507013442 0 0.0 0.0 0.00 0.00 0.00 85 1015.1
20260507012942 0 0.0 0.0 0.00 0.00 0.00 86 1015.1
20260507012442 0 0.0 0.0 0.00 0.00 0.00 85 1015.1
20260507011942 0 0.0 0.0 0.00 0.00 0.00 85 1015.1
20260507011442 0 0.0 0.0 0.00 0.00 0.00 85 1015.0
20260507010942 0 0.0 0.0 0.00 0.00 0.00 86 1015.1
20260507010442 0 0.0 0.0 0.00 0.00 0.00 86 1015.0
20260507005942 0 0.0 0.0 0.00 0.00 0.00 86 1015.1
20260507005442 0 0.0 0.0 0.00 0.00 0.00 85 1015.0
20260507004942 0 0.0 0.0 0.00 0.00 0.00 85 1015.0
20260507004442 0 0.0 0.0 0.00 0.00 0.00 85 1014.9
20260507003942 0 0.0 0.0 0.00 0.00 0.00 84 1014.9
20260507003442 0 0.0 0.0 0.00 0.00 0.00 84 1015.0
20260507002942 0 0.0 0.0 0.00 0.00 0.00 84 1014.9
20260507002442 0 0.0 0.0 0.00 0.00 0.00 82 1014.9
20260507001942 0 0.0 0.0 0.00 0.00 0.00 83 1014.9
20260507001442 0 0.0 0.0 0.00 0.00 0.00 84 1015.0
20260507000942 0 0.0 0.0 0.00 0.00 0.00 84 1015.0
20260507000442 0 0.0 0.0 0.00 0.00 0.00 84 1015.1
20260506235942 0 0.0 0.0 0.00 0.00 0.00 84 1015.1
20260506235442 0 0.0 0.0 0.00 0.00 0.00 83 1014.9
20260506234942 0 0.0 0.0 0.00 0.00 0.00 83 1014.9
20260506234442 0 0.0 0.0 0.00 0.00 0.00 84 1014.9
20260506233942 0 0.0 0.0 0.00 0.00 0.00 85 1014.9
20260506233442 0 0.0 0.0 0.00 0.00 0.00 84 1014.8
20260506232942 0 0.0 0.0 0.00 0.00 0.00 85 1014.9
20260506232442 0 0.0 0.0 0.00 0.00 0.00 84 1015.0
20260506231942 0 0.0 0.0 0.00 0.00 0.00 84 1015.0
20260506231442 0 0.0 0.0 0.00 0.00 0.00 83 1014.9
20260506230942 0 0.0 0.0 0.00 0.00 0.00 83 1014.9
20260506230442 0 0.0 0.0 0.00 0.00 0.00 83 1014.8
20260506225942 0 0.0 0.0 0.00 0.00 0.00 83 1014.7
20260506225442 0 0.0 0.0 0.00 0.00 0.00 82 1014.8
20260506224942 0 0.0 0.0 0.00 0.00 0.00 82 1014.7
20260506224442 0 0.0 0.0 0.00 0.00 0.00 82 1014.7
20260506223942 0 0.0 0.0 0.00 0.00 0.00 82 1014.7
20260506223442 0 0.0 0.0 0.00 0.00 0.00 83 1014.7
20260506222942 0 0.0 0.0 0.00 0.00 0.00 82 1014.7
20260506222442 0 0.0 0.0 0.00 0.00 0.00 83 1014.7
20260506221942 0 0.0 0.0 0.00 0.00 0.00 84 1014.7
20260506221442 0 0.0 0.0 0.00 0.00 0.00 84 1014.7
20260506220942 0 0.0 0.0 0.00 0.00 0.00 83 1014.8
20260506220442 0 0.0 0.0 0.00 0.00 0.00 83 1014.7
20260506215942 0 0.0 0.0 0.00 0.00 0.00 83 1014.8
20260506215442 0 0.0 0.0 0.00 0.00 0.00 83 1014.7
20260506214942 0 0.0 0.0 0.00 0.00 0.00 82 1014.6
20260506214442 0 0.0 0.0 0.00 0.00 0.00 81 1014.7
20260506213942 0 0.0 0.0 0.00 0.00 0.00 82 1014.7
20260506213442 0 0.0 0.0 0.00 0.00 0.00 82 1014.7
20260506212942 0 0.0 0.0 0.00 0.00 0.00 82 1014.7
20260506212442 0 0.0 0.0 0.00 0.00 0.00 82 1014.6
20260506211942 0 0.0 0.0 0.00 0.00 0.00 82 1014.5
20260506211442 0 0.0 0.0 0.00 0.00 0.00 82 1014.5
20260506210942 0 0.0 0.0 0.00 0.00 0.00 82 1014.6
20260506210442 0 0.0 0.0 0.00 0.00 0.00 82 1014.5
20260506205942 0 0.0 0.0 0.00 0.00 0.00 82 1014.5
20260506205442 0 0.0 0.0 0.00 0.00 0.00 81 1014.5
20260506204942 0 0.0 0.0 0.00 0.00 0.00 81 1014.5
20260506204442 0 0.0 0.0 0.00 0.00 0.00 81 1014.5
20260506203942 0 0.0 0.0 0.00 0.00 0.00 81 1014.4
20260506203442 0 0.0 0.0 0.00 0.00 0.00 81 1014.2
20260506202942 0 0.0 0.0 0.00 0.00 0.00 81 1014.3
20260506202442 0 0.0 0.0 0.00 0.00 0.00 82 1014.2
20260506201942 0 0.0 0.0 0.00 0.00 0.00 82 1014.1
20260506201442 0 0.0 0.0 0.00 0.00 0.00 81 1014.0
20260506200942 0 0.0 0.0 0.00 0.00 0.00 82 1013.9
20260506200442 0 0.0 0.0 0.00 0.00 0.00 81 1013.8
20260506195942 0 0.0 0.0 0.00 0.00 0.00 80 1013.7
20260506195442 0 0.0 0.0 0.00 0.00 0.00 80 1013.7
20260506194942 0 0.0 0.0 0.00 0.00 0.00 80 1013.6
20260506194442 0 0.0 0.0 0.00 0.00 0.00 79 1013.6
20260506193942 0 0.0 0.0 0.00 0.00 0.00 79 1013.5
20260506193442 0 0.0 0.0 0.00 0.00 0.00 78 1013.5